Time,TemperatureF,DewpointF,PressureIn,WindDirection,WindDirectionDegrees,WindSpeedMPH,WindSpeedGustMPH,Humidity,HourlyPrecipIn,Conditions,Clouds,dailyrainin,SoftwareType,DateUTC
2013-11-26 00:03:00,31.3,29.0,30.02,West,270,3.0,6.0,91,0.00,,,-99.99,WeatherLink 5.7,2013-11-26 05:03:00,
2013-11-26 00:33:00,31.3,29.0,30.02,SW,225,3.0,5.0,91,0.00,,,-99.99,WeatherLink 5.7,2013-11-26 05:33:00,
2013-11-26 01:03:00,31.3,29.0,30.04,SW,225,2.0,7.0,91,0.00,,,-99.99,WeatherLink 5.7,2013-11-26 06:03:00,
2013-11-26 01:33:00,31.4,29.1,30.02,WSW,247,2.0,6.0,91,0.00,,,-99.99,WeatherLink 5.7,2013-11-26 06:33:00,
2013-11-26 02:03:00,31.5,29.2,30.02,SW,225,2.0,4.0,91,0.00,,,-99.99,WeatherLink 5.7,2013-11-26 07:03:00,
2013-11-26 02:33:00,31.5,29.2,30.01,SSW,202,3.0,7.0,91,0.00,,,-99.99,WeatherLink 5.7,2013-11-26 07:33:00,
2013-11-26 03:03:00,31.6,29.3,30.01,SW,225,4.0,7.0,91,0.00,,,-99.99,WeatherLink 5.7,2013-11-26 08:03:00,
2013-11-26 03:33:00,31.8,29.5,30.01,SW,225,3.0,7.0,91,0.00,,,-99.99,WeatherLink 5.7,2013-11-26 08:33:00,
2013-11-26 04:03:00,31.9,29.6,30.01,WSW,247,4.0,9.0,91,0.00,,,-99.99,WeatherLink 5.7,2013-11-26 09:03:00,
2013-11-26 04:33:00,31.8,29.5,29.98,WSW,247,3.0,9.0,91,0.00,,,-99.99,WeatherLink 5.7,2013-11-26 09:33:00,
2013-11-26 05:03:00,31.9,29.6,29.97,WSW,247,3.0,6.0,91,0.00,,,-99.99,WeatherLink 5.7,2013-11-26 10:03:00,
2013-11-26 05:33:00,31.9,29.6,29.97,SSW,202,2.0,4.0,91,0.00,,,-99.99,WeatherLink 5.7,2013-11-26 10:33:00,
2013-11-26 06:03:00,31.9,29.6,29.98,SSW,202,2.0,5.0,91,0.00,,,-99.99,WeatherLink 5.7,2013-11-26 11:03:00,
2013-11-26 06:33:00,31.8,29.5,29.96,SSW,202,2.0,6.0,91,0.00,,,-99.99,WeatherLink 5.7,2013-11-26 11:33:00,
2013-11-26 07:03:00,31.8,29.5,29.96,South,180,2.0,6.0,91,0.00,,,-99.99,WeatherLink 5.7,2013-11-26 12:03:00,
2013-11-26 07:33:00,31.9,29.6,29.94,South,180,1.0,3.0,91,0.00,,,-99.99,WeatherLink 5.7,2013-11-26 12:33:00,
2013-11-26 08:03:00,31.9,29.6,29.94,South,180,2.0,4.0,91,0.00,,,-99.99,WeatherLink 5.7,2013-11-26 13:03:00,
2013-11-26 08:33:00,32.0,29.7,29.95,South,180,2.0,4.0,91,0.00,,,-99.99,WeatherLink 5.7,2013-11-26 13:33:00,
2013-11-26 09:03:00,32.0,29.7,29.94,South,180,1.0,4.0,91,0.00,,,-99.99,WeatherLink 5.7,2013-11-26 14:03:00,
2013-11-26 09:33:00,32.2,29.9,29.94,SSE,157,1.0,3.0,91,0.00,,,-99.99,WeatherLink 5.7,2013-11-26 14:33:00,
2013-11-26 10:03:00,32.4,30.1,29.94,SSE,157,1.0,2.0,91,0.00,,,-99.99,WeatherLink 5.7,2013-11-26 15:03:00,
2013-11-26 10:33:00,32.7,30.4,29.94,SW,225,1.0,4.0,91,0.00,,,-99.99,WeatherLink 5.7,2013-11-26 15:33:00,
2013-11-26 11:03:00,33.3,31.0,29.92,WNW,292,1.0,3.0,91,0.00,,,-99.99,WeatherLink 5.7,2013-11-26 16:03:00,
2013-11-26 11:33:00,33.3,31.0,29.90,WNW,292,0.0,2.0,91,0.00,,,-99.99,WeatherLink 5.7,2013-11-26 16:33:00,
2013-11-26 12:03:00,33.4,31.1,29.90,WNW,292,1.0,3.0,91,0.00,,,-99.99,WeatherLink 5.7,2013-11-26 17:03:00,
2013-11-26 12:33:00,33.6,31.3,29.88,WNW,292,1.0,3.0,91,0.00,,,-99.99,WeatherLink 5.7,2013-11-26 17:33:00,
2013-11-26 13:03:00,33.7,31.4,29.83,NW,315,2.0,4.0,91,0.00,,,-99.99,WeatherLink 5.7,2013-11-26 18:03:00,
2013-11-26 13:33:00,33.7,31.4,29.83,NW,315,3.0,5.0,91,0.00,,,-99.99,WeatherLink 5.7,2013-11-26 18:33:00,
2013-11-26 14:03:00,33.8,31.5,29.83,NW,315,3.0,5.0,91,0.00,,,-99.99,WeatherLink 5.7,2013-11-26 19:03:00,
2013-11-26 14:33:00,33.8,31.5,29.79,NW,315,3.0,6.0,91,0.00,,,-99.99,WeatherLink 5.7,2013-11-26 19:33:00,
2013-11-26 15:03:00,33.9,31.6,29.80,NW,315,3.0,6.0,91,0.00,,,-99.99,WeatherLink 5.7,2013-11-26 20:03:00,
2013-11-26 15:33:00,34.0,31.6,29.79,NW,315,4.0,8.0,91,0.00,,,-99.99,WeatherLink 5.7,2013-11-26 20:33:00,
2013-11-26 16:03:00,33.9,31.6,29.79,NW,315,3.0,7.0,91,0.00,,,-99.99,WeatherLink 5.7,2013-11-26 21:03:00,
2013-11-26 16:33:00,33.7,31.4,29.79,NW,315,4.0,9.0,91,0.00,,,-99.99,WeatherLink 5.7,2013-11-26 21:33:00,
2013-11-26 17:03:00,33.3,31.0,29.79,NNW,337,4.0,7.0,91,0.00,,,-99.99,WeatherLink 5.7,2013-11-26 22:03:00,
2013-11-26 17:33:00,33.2,30.9,29.77,NNW,337,5.0,10.0,91,0.00,,,-99.99,WeatherLink 5.7,2013-11-26 22:33:00,
2013-11-26 18:03:00,32.6,30.3,29.77,NNW,337,5.0,11.0,91,0.00,,,-99.99,WeatherLink 5.7,2013-11-26 23:03:00,
2013-11-26 18:33:00,32.4,30.1,29.77,NNW,337,5.0,9.0,91,0.00,,,-99.99,WeatherLink 5.7,2013-11-26 23:33:00,
2013-11-26 19:03:00,32.5,30.2,29.77,NNW,337,5.0,11.0,91,0.00,,,-99.99,WeatherLink 5.7,2013-11-27 00:03:00,
2013-11-26 19:33:00,32.5,30.2,29.78,NNW,337,6.0,12.0,91,0.00,,,-99.99,WeatherLink 5.7,2013-11-27 00:33:00,
2013-11-26 20:03:00,32.2,29.9,29.77,NNW,337,6.0,12.0,91,0.00,,,-99.99,WeatherLink 5.7,2013-11-27 01:03:00,
2013-11-26 20:33:00,32.0,29.7,29.78,NW,315,6.0,13.0,91,0.00,,,-99.99,WeatherLink 5.7,2013-11-27 01:33:00,
2013-11-26 21:03:00,31.5,29.2,29.78,NNW,337,5.0,12.0,91,0.00,,,-99.99,WeatherLink 5.7,2013-11-27 02:03:00,
2013-11-26 21:33:00,31.3,29.0,29.77,NW,315,5.0,10.0,91,0.00,,,-99.99,WeatherLink 5.7,2013-11-27 02:33:00,
2013-11-26 22:03:00,31.4,29.1,29.76,NW,315,6.0,13.0,91,0.00,,,-99.99,WeatherLink 5.7,2013-11-27 03:03:00,
2013-11-26 22:33:00,31.3,29.0,29.76,NW,315,5.0,12.0,91,0.00,,,-99.99,WeatherLink 5.7,2013-11-27 03:33:00,
2013-11-26 23:03:00,31.6,29.3,29.76,NW,315,6.0,11.0,91,0.00,,,-99.99,WeatherLink 5.7,2013-11-27 04:03:00,
2013-11-26 23:33:00,31.8,29.5,29.77,NW,315,6.0,13.0,91,0.00,,,-99.99,WeatherLink 5.7,2013-11-27 04:33:00,